CW7783 Weather Reports


time (UTC)temp
C
wind
direction
speed
KPH
gust
KPH
rain 1hr
cm
rain 24hr
cm
rain mn
cm
humidity
%
barometer
mb
20260505061722 12 306 1.6 3.2 0.61 0.61 0.13 91 1013.3
20260505061237 12 298 1.6 4.8 0.51 0.51 0.10 90 1013.2
20260505060726 12 339 3.2 4.8 0.41 0.41 0.08 90 1013.2
20260505060239 12 304 0.0 4.8 0.30 0.30 0.05 89 1013.1
20260505055722 12 286 1.6 4.8 0.20 0.20 0.05 89 1013.0
20260505055235 12 281 3.2 4.8 0.10 0.10 0.03 88 1012.9
20260505054748 12 292 0.0 4.8 0.00 0.00 0.00 87 1012.8
20260505054301 12 315 3.2 6.4 0.00 0.00 0.00 87 1012.7
20260505053735 12 323 1.6 6.4 0.00 0.00 0.00 87 1012.7
20260505053248 12 304 1.6 4.8 0.00 0.00 0.00 86 1012.6
20260505052724 13 327 3.2 4.8 0.00 0.00 0.00 85 1012.6
20260505052255 13 344 3.2 6.4 0.00 0.00 0.00 85 1012.5
20260505051727 13 346 3.2 6.4 0.00 0.00 0.00 84 1012.5
20260505051241 13 275 3.2 6.4 0.00 0.00 0.00 84 1012.6
20260505050728 13 284 1.6 6.4 0.00 0.00 0.00 83 1012.5
20260505050222 13 274 3.2 9.7 0.00 0.00 0.00 82 1012.4
20260505041738 13 304 1.6 6.4 0.00 0.00 0.00 80 1012.1
20260505041248 13 312 3.2 6.4 0.00 0.00 0.00 79 1012.2
20260505040737 13 244 3.2 8.0 0.00 0.00 0.00 79 1012.2
20260505040231 13 277 4.8 8.0 0.00 0.00 0.00 78 1012.2
20260505035737 13 259 4.8 6.4 0.00 0.00 0.00 78 1012.3
20260505035227 13 232 4.8 6.4 0.00 0.00 0.00 78 1012.4
20260505034726 13 197 3.2 4.8 0.00 0.00 0.00 79 1012.4
20260505034237 13 239 1.6 4.8 0.00 0.00 0.00 80 1012.2
20260505033743 13 240 0.0 0.0 0.00 0.00 0.00 79 1012.4
20260505033235 13 244 0.0 0.0 0.00 0.00 0.00 79 1012.3
20260505032746 13 329 0.0 0.0 0.00 0.00 0.00 79 1012.5
20260505032237 13 329 0.0 0.0 0.00 0.00 0.00 78 1012.6
20260505031722 13 329 0.0 0.0 0.00 0.00 0.00 77 1012.5
20260505031236 13 329 0.0 0.0 0.00 0.00 0.00 76 1012.6
20260505030723 13 329 0.0 0.0 0.00 0.00 0.00 75 1012.6
20260505030256 13 329 0.0 4.8 0.00 0.00 0.00 76 1012.6
20260505025720 13 323 0.0 4.8 0.00 0.00 0.00 76 1012.7
20260505025229 13 329 1.6 3.2 0.00 0.00 0.00 76 1012.8
20260505024741 13 350 0.0 0.0 0.00 0.00 0.00 74 1012.8
20260505024234 13 350 0.0 0.0 0.00 0.00 0.00 75 1013.0
20260505023719 13 350 0.0 3.2 0.00 0.00 0.00 74 1013.0
20260505023233 13 348 0.0 4.8 0.00 0.00 0.00 74 1013.1
20260505022727 13 349 1.6 4.8 0.00 0.00 0.00 74 1013.1
20260505022228 13 336 3.2 4.8 0.00 0.00 0.00 74 1013.1
20260505021722 13 330 1.6 6.4 0.00 0.00 0.00 74 1013.2
20260505021233 13 335 3.2 6.4 0.00 0.00 0.00 73 1013.2
20260505020721 13 345 4.8 6.4 0.00 0.00 0.00 74 1013.2
20260505020234 13 313 1.6 6.4 0.00 0.00 0.00 74 1013.3
20260505015738 13 340 0.0 0.0 0.00 0.00 0.00 74 1013.4
20260505015231 13 281 0.0 0.0 0.00 0.00 0.00 74 1013.4
20260505014744 14 278 0.0 0.0 0.00 0.00 0.00 73 1013.5
20260505014227 14 288 0.0 3.2 0.00 0.00 0.00 74 1013.6
20260505013738 14 277 1.6 6.4 0.00 0.00 0.00 73 1013.7
20260505013231 14 238 1.6 6.4 0.00 0.00 0.00 73 1013.8
20260505012746 14 277 3.2 6.4 0.00 0.00 0.00 73 1014.0
20260505012230 14 235 3.2 6.4 0.00 0.00 0.00 74 1014.0
20260505011723 14 264 3.2 6.4 0.00 0.00 0.00 74 1014.1
20260505011235 14 248 1.6 6.4 0.00 0.00 0.00 74 1014.1
20260505010744 14 249 3.2 6.4 0.00 0.00 0.00 74 1014.0
20260505010230 14 257 0.0 4.8 0.00 0.00 0.00 75 1014.1
20260505005722 14 276 3.2 4.8 0.00 0.00 0.00 75 1014.1
20260505005237 13 260 0.0 6.4 0.00 0.00 0.00 76 1014.3
20260505004733 13 282 1.6 12.9 0.00 0.00 0.00 77 1014.5
20260505004241 13 265 3.2 12.9 0.00 0.00 0.00 78 1014.6
20260505003734 13 281 0.0 0.0 0.00 0.00 0.00 78 1014.6
20260505003247 13 333 0.0 0.0 0.00 0.00 0.00 77 1014.7
20260505002731 13 333 0.0 0.0 0.00 0.00 0.00 77 1014.6
20260505002221 13 344 0.0 1.6 0.00 0.00 0.00 77 1014.8
20260505001755 13 344 1.6 1.6 0.00 0.00 0.00 77 1014.8
20260505001219 13 281 0.0 0.0 0.00 0.00 0.00 78 1015.0
20260505000729 13 282 0.0 0.0 0.00 0.00 0.00 78 1015.1
20260505000223 13 282 0.0 1.6 0.00 0.00 0.00 78 1015.1
20260504235737 13 281 0.0 4.8 0.00 0.00 0.00 78 1015.2
20260504235229 13 282 1.6 4.8 0.00 0.00 0.00 78 1015.2
20260504234743 13 254 0.0 0.0 0.00 0.00 0.00 78 1015.4
20260504234225 13 234 0.0 0.0 0.00 0.00 0.00 77 1015.4
20260504233807 13 288 0.0 0.0 0.00 0.00 0.00 77 1015.5
20260504233228 13 288 0.0 0.0 0.00 0.00 0.00 77 1015.5
20260504232719 13 302 0.0 0.0 0.00 0.00 0.00 77 1015.5
20260504232229 13 302 0.0 0.0 0.00 0.00 0.00 77 1015.6
20260504231734 13 302 0.0 0.0 0.00 0.00 0.00 76 1015.6
20260504231228 13 298 0.0 0.0 0.00 0.00 0.00 76 1015.6
20260504230738 14 297 0.0 0.0 0.00 0.00 0.00 76 1015.6
20260504230223 14 297 0.0 0.0 0.00 0.00 0.00 75 1015.8
20260504225735 14 295 0.0 3.2 0.00 0.00 0.00 75 1015.8
20260504225249 14 289 1.6 3.2 0.00 0.00 0.00 75 1016.0
20260504224741 14 315 0.0 0.0 0.00 0.00 0.00 73 1016.0
20260504224252 15 304 0.0 0.0 0.00 0.00 0.00 72 1016.0
20260504223745 15 304 0.0 0.0 0.00 0.00 0.00 72 1016.1
20260504223229 15 304 0.0 1.6 0.00 0.00 0.00 71 1016.1
20260504222722 15 304 0.0 1.6 0.00 0.00 0.00 71 1016.1
20260504222237 15 304 0.0 1.6 0.00 0.00 0.00 71 1016.1
20260504221729 15 303 0.0 3.2 0.00 0.00 0.00 70 1016.1
20260504221300 15 302 1.6 3.2 0.00 0.00 0.00 70 1016.1
20260504220736 15 292 0.0 4.8 0.00 0.00 0.00 70 1016.3
20260504220220 15 288 1.6 6.4 0.00 0.00 0.00 71 1016.3
20260504215732 15 286 3.2 8.0 0.00 0.00 0.00 70 1016.3
20260504215239 15 254 4.8 8.0 0.00 0.00 0.00 71 1016.4
20260504214751 15 279 3.2 6.4 0.00 0.00 0.00 70 1016.3
20260504214223 15 269 3.2 6.4 0.00 0.00 0.00 70 1016.4
20260504213735 15 273 1.6 4.8 0.00 0.00 0.00 70 1016.4
20260504213232 15 292 1.6 6.4 0.00 0.00 0.00 69 1016.4
20260504212726 15 288 3.2 6.4 0.00 0.00 0.00 69 1016.5
20260504212239 16 289 3.2 6.4 0.00 0.00 0.00 68 1016.5
20260504211723 16 288 3.2 11.3 0.00 0.00 0.00 68 1016.5
20260504211256 16 291 3.2 12.9 0.00 0.00 0.00 67 1016.6
20260504210723 16 272 6.4 14.5 0.00 0.00 0.00 66 1016.6
20260504210233 16 269 4.8 16.1 0.00 0.00 0.00 66 1016.6
20260504205747 16 263 4.8 16.1 0.00 0.00 0.00 66 1016.6
20260504205301 16 325 6.4 14.5 0.00 0.00 0.00 66 1016.7
20260504204748 16 273 8.0 17.7 0.00 0.00 0.00 65 1016.7
20260504204300 16 245 8.0 17.7 0.00 0.00 0.00 65 1016.7
20260504203724 16 265 6.4 14.5 0.00 0.00 0.00 65 1016.8
20260504203236 16 242 6.4 14.5 0.00 0.00 0.00 65 1016.7
20260504202833 17 260 8.0 14.5 0.00 0.00 0.00 64 1016.7
20260504202232 17 235 4.8 11.3 0.00 0.00 0.00 63 1016.6
20260504201745 17 227 6.4 12.9 0.00 0.00 0.00 63 1016.7
20260504201233 17 254 6.4 12.9 0.00 0.00 0.00 62 1016.6
20260504200740 17 225 6.4 9.7 0.00 0.00 0.00 62 1016.5
20260504200224 17 238 4.8 11.3 0.00 0.00 0.00 61 1016.5
20260504195737 17 241 6.4 8.0 0.00 0.00 0.00 61 1016.6
20260504195250 17 242 6.4 8.0 0.00 0.00 0.00 60 1016.5
20260504194735 17 235 3.2 8.0 0.00 0.00 0.00 60 1016.5
20260504194303 17 217 4.8 8.0 0.00 0.00 0.00 59 1016.4
20260504193733 17 257 4.8 8.0 0.00 0.00 0.00 59 1016.4
20260504193300 17 245 3.2 8.0 0.00 0.00 0.00 58 1016.4
20260504192749 17 243 3.2 8.0 0.00 0.00 0.00 57 1016.4
20260504192240 17 204 4.8 8.0 0.00 0.00 0.00 56 1016.3
20260504191743 17 234 0.0 6.4 0.00 0.00 0.00 55 1016.4
20260504191226 17 218 3.2 11.3 0.00 0.00 0.00 55 1016.3
20260504190803 17 222 6.4 11.3 0.00 0.00 0.00 57 1016.3
20260504190255 17 229 3.2 4.8 0.00 0.00 0.00 59 1016.2
20260504185755 17 248 1.6 3.2 0.00 0.00 0.00 59 1016.2
20260504185234 17 248 0.0 0.0 0.00 0.00 0.00 58 1015.9
20260504184744 17 248 0.0 0.0 0.00 0.00 0.00 57 1016.1
20260504184235 18 248 0.0 0.0 0.00 0.00 0.00 57 1015.9
20260504183727 18 248 0.0 0.0 0.00 0.00 0.00 56 1015.9
20260504183228 18 248 0.0 1.6 0.00 0.00 0.00 54 1015.9
20260504182720 18 243 0.0 3.2 0.00 0.00 0.00 53 1015.8
20260504182234 18 243 1.6 3.2 0.00 0.00 0.00 52 1015.8
20260504181747 18 243 0.0 4.8 0.00 0.00 0.00 51 1015.8
20260504181251 18 227 1.6 4.8 0.00 0.00 0.00 51 1015.8
20260504180740 18 234 3.2 4.8 0.00 0.00 0.00 50 1015.9
20260504180229 18 247 0.0 3.2 0.00 0.00 0.00 50 1015.8
20260504175721 18 250 0.0 3.2 0.00 0.00 0.00 49 1015.9
20260504175227 19 238 1.6 4.8 0.00 0.00 0.00 48 1015.8
20260504174729 19 223 3.2 6.4 0.00 0.00 0.00 49 1015.8
20260504174223 19 226 3.2 6.4 0.00 0.00 0.00 49 1015.8
20260504173734 19 253 4.8 8.0 0.00 0.00 0.00 48 1015.8
20260504173237 19 215 3.2 8.0 0.00 0.00 0.00 48 1015.8
20260504172735 19 221 6.4 9.7 0.00 0.00 0.00 46 1015.9
20260504172229 19 218 8.0 9.7 0.00 0.00 0.00 46 1015.8
20260504171742 20 207 4.8 9.7 0.00 0.00 0.00 47 1015.8
20260504171331 20 225 4.8 14.5 0.00 0.00 0.00 47 1015.8
20260504171249 20 225 4.8 14.5 0.00 0.00 0.00 47 1015.8
20260504170741 20 204 6.4 14.5 0.00 0.00 0.00 46 1015.9
20260504170247 20 231 6.4 12.9 0.00 0.00 0.00 47 1016.0
20260504160220 20 234 3.2 11.3 0.00 0.00 0.00 48 1016.2
20260504150746 21 194 8.0 16.1 0.00 0.00 0.00 46 1016.6
20260504150308 21 239 4.8 16.1 0.00 0.00 0.00 48 1016.5
20260504141309 21 228 11.3 17.7 0.00 0.00 0.00 45 1017.0
20260504140727 21 280 8.0 16.1 0.00 0.00 0.00 43 1017.0
20260504140237 22 331 4.8 14.5 0.00 0.00 0.00 43 1017.0
20260504130721 21 294 6.4 17.7 0.00 0.00 0.00 46 1017.6
20260504130235 21 198 8.0 17.7 0.00 0.00 0.00 46 1017.6
20260504120229 20 200 11.3 22.5 0.00 0.00 0.00 45 1018.0
20260504110223 20 265 9.7 17.7 0.00 0.00 0.00 45 1018.3
20260504100222 20 229 8.0 16.1 0.00 0.00 0.00 46 1018.5
20260504081745 19 193 6.4 16.1 0.00 0.00 0.00 45 1018.3
20260504081238 19 252 9.7 16.1 0.00 0.00 0.00 46 1018.4
20260504080744 19 212 8.0 14.5 0.00 0.00 0.00 46 1018.4
20260504080226 18 240 6.4 12.9 0.00 0.00 0.00 49 1018.3
20260504070229 17 5 1.6 4.8 0.00 0.00 0.00 58 1018.2